GFSSW_850_rhum_021.txt.gz
RH
12 11 10 8 8 7 7 8 7 8 8 8 8 8 8 7 7 8 9 3 5 15 24 34 62 77 87 98 91 65 61 64 50 49 52 48 55 57 55 65 60 65 62 65 70
22 18 14 12 10 8 7 7 7 7 7 7 8 8 8 8 7 7 6 8 7 6 12 33 63 88 90 78 77 66 64 50 38 37 48 46 52 53 60 62 64 67 59 69 85
26 23 22 20 16 12 11 9 7 7 7 7 7 7 8 8 8 7 11 14 9 6 9 13 42 73 70 55 68 56 62 35 30 30 42 46 49 50 60 64 66 68 73 79 86
44 38 32 26 23 21 16 13 11 9 7 6 7 6 7 8 10 14 12 10 7 6 16 27 33 49 40 50 43 36 41 38 28 29 41 45 46 50 54 50 53 43 57 70 84
45 43 42 40 34 25 21 18 14 11 10 7 6 6 6 8 8 8 12 12 6 8 17 21 24 22 16 16 19 36 29 22 22 25 35 42 48 48 52 50 53 58 66 74 78
43 40 38 37 37 34 24 20 18 14 11 10 7 6 6 12 8 8 7 9 12 12 16 16 14 17 15 14 15 16 17 17 16 22 26 42 47 46 51 54 65 69 70 71 68
40 39 36 34 33 34 31 22 19 16 11 10 8 6 7 8 8 9 9 8 8 11 12 11 10 13 12 15 12 13 18 16 15 15 28 37 47 51 48 57 66 69 71 71 65
34 29 28 30 30 30 31 27 21 15 9 8 7 7 10 6 7 8 10 13 13 13 13 12 13 12 16 16 15 14 15 17 13 14 24 30 44 44 47 58 65 67 70 70 67
28 27 24 23 24 26 29 26 16 14 17 20 12 12 13 8 7 7 9 9 10 14 14 15 20 18 14 20 20 19 22 18 16 13 29 27 36 47 50 58 63 65 68 69 68
33 28 26 24 22 24 27 19 22 32 39 43 46 44 16 10 21 20 15 9 9 14 18 19 19 21 22 22 27 21 19 17 16 18 28 34 36 48 50 59 62 64 67 69 70
31 30 27 23 23 24 22 23 24 29 29 28 34 27 16 15 14 16 16 10 11 14 23 18 25 29 23 19 17 15 16 17 16 15 28 30 37 50 48 51 61 64 65 67 66
22 20 19 20 22 28 24 28 38 43 47 20 16 18 13 14 20 14 20 12 14 19 17 19 23 21 19 19 17 16 17 16 14 13 21 27 35 41 48 49 50 57 63 63 63
19 18 17 12 20 23 26 29 28 32 36 19 16 16 16 15 23 14 17 11 17 20 18 20 17 16 18 18 17 16 17 15 15 14 22 38 40 39 48 46 47 49 52 56 58
20 16 17 13 16 14 30 26 24 28 30 21 15 13 14 14 26 12 15 12 16 18 18 19 14 15 17 18 18 24 14 13 12 15 19 30 52 46 41 53 49 49 50 50 50
28 17 16 17 20 14 24 22 22 25 41 18 13 11 12 12 10 16 11 17 18 17 18 20 18 15 18 16 17 18 13 14 14 16 18 21 37 39 41 46 45 43 46 49 49
39 24 20 22 18 17 13 21 24 24 36 18 11 11 13 11 9 12 14 17 14 17 16 16 14 14 16 14 13 14 13 12 16 21 27 16 26 26 54 37 37 34 38 42 45
43 31 19 23 27 18 13 26 29 35 19 20 24 21 18 12 10 10 14 18 22 25 24 20 17 13 13 16 16 15 17 24 21 24 22 16 29 17 32 30 29 32 32 35 38
48 29 18 44 53 27 18 37 39 25 24 25 28 25 19 24 13 18 17 20 18 16 25 25 27 18 14 15 17 18 17 29 24 26 20 20 28 22 18 24 25 25 27 31 35
48 25 26 52 46 51 54 55 37 31 29 32 29 31 35 32 28 29 25 17 17 16 19 26 24 14 14 13 12 15 18 14 16 22 23 24 20 18 18 22 27 26 25 28 32
61 32 42 40 45 46 69 71 49 31 30 32 38 38 47 41 35 38 32 19 21 20 14 16 17 14 12 13 13 14 13 14 20 21 21 18 20 20 21 17 28 34 29 28 30
64 62 34 46 47 59 85 76 47 34 29 34 37 40 40 41 35 37 36 33 37 37 26 17 16 14 12 15 16 16 16 14 15 17 17 19 14 12 17 22 26 33 30 27 28
79 92 41 42 57 65 76 67 46 40 39 41 38 37 43 44 47 35 37 35 44 41 50 39 24 18 16 14 10 12 13 16 18 19 21 13 13 11 12 12 22 23 19 18 25
86 90 49 57 88 79 69 54 47 48 47 46 47 46 54 51 48 58 56 42 50 48 63 58 51 24 18 13 13 15 16 12 15 17 16 18 16 12 13 14 17 17 11 14 21
86 96 69 63 70 77 80 68 72 56 48 52 45 54 67 70 56 65 58 50 46 42 52 48 55 40 28 19 16 17 15 14 13 17 15 14 12 11 12 13 15 24 15 13 20
87 91 92 96 87 95 73 69 74 74 64 57 55 63 75 81 78 70 61 65 48 52 53 60 71 45 39 34 27 17 16 13 15 14 15 12 13 10 13 15 13 7 12 18 25
86 98 94 94 87 75 78 69 75 58 57 62 93 71 59 77 68 68 66 69 70 61 57 64 68 58 47 28 24 22 16 14 12 12 12 12 14 11 10 9 10 7 6 11 11
91 91 100 87 87 87 78 68 69 64 59 60 60 66 61 62 66 62 58 60 60 64 71 70 69 69 67 40 36 27 18 14 12 12 12 13 12 11 11 12 12 8 7 10 8

GFSSW_850_rhum_024.txt.gz
RH
24 23 21 17 14 11 9 8 7 7 7 7 8 8 8 8 8 8 8 6 7 7 26 38 55 62 83 95 94 76 74 71 52 54 46 54 61 60 60 66 65 65 59 68 74
45 40 32 26 23 20 15 12 10 8 7 7 7 7 8 8 8 9 8 8 8 8 25 41 69 89 96 87 90 85 78 57 41 39 52 54 57 59 65 64 66 70 66 66 72
48 45 44 42 38 29 23 19 14 12 10 8 7 7 7 7 8 7 13 14 9 8 20 36 64 95 88 76 81 74 80 50 34 30 42 53 53 54 63 68 67 77 70 73 73
46 44 41 39 38 39 36 25 20 16 12 10 8 7 6 7 11 12 12 11 14 7 17 51 74 87 68 71 65 57 48 51 35 31 46 53 52 53 55 55 50 59 53 69 74
41 40 39 36 34 34 34 35 28 21 18 12 10 9 7 8 8 10 12 11 15 14 17 32 80 65 32 38 47 53 44 32 25 26 38 45 50 52 58 48 49 61 64 71 72
32 31 29 27 28 30 29 32 33 27 21 18 12 10 7 11 8 9 9 10 10 12 25 24 53 51 20 17 28 18 25 23 18 17 24 46 48 49 50 56 61 67 74 81 67
32 29 27 26 25 24 27 29 30 29 22 18 12 10 9 7 7 9 8 8 11 7 19 26 18 22 18 16 13 14 19 18 18 16 25 38 54 56 51 55 67 74 72 79 72
28 28 27 24 23 23 25 27 29 27 19 14 12 10 10 6 6 7 16 9 9 12 9 15 18 17 16 15 16 15 16 19 15 19 21 41 55 51 50 60 69 72 75 76 75
18 16 14 14 17 20 26 25 23 20 21 23 19 11 11 8 6 6 10 13 11 13 15 18 18 19 17 20 24 22 24 21 17 16 24 44 47 45 52 61 68 71 73 73 78
16 14 11 8 10 27 25 24 29 39 46 42 51 33 16 13 20 8 7 8 10 11 26 24 22 26 26 26 22 25 22 19 17 17 33 48 37 46 55 62 67 69 72 74 74
15 14 11 7 8 25 23 26 28 35 33 42 42 30 17 12 20 18 20 10 11 17 26 21 30 33 28 22 18 20 19 18 16 16 32 37 38 62 55 59 64 66 69 72 65
15 16 15 8 7 20 30 30 42 51 59 24 21 25 20 24 19 20 20 13 15 21 24 25 29 25 24 21 20 18 20 21 14 14 14 21 35 56 56 59 59 64 67 69 67
14 15 17 10 8 10 33 29 29 40 55 27 22 22 22 19 22 15 21 14 17 21 23 24 22 22 22 23 22 22 21 19 17 14 18 34 40 41 54 54 58 61 63 65 67
15 20 20 16 12 11 27 24 20 35 38 25 19 16 18 17 24 16 16 14 17 16 21 22 18 20 23 23 21 28 18 15 15 16 20 30 41 45 54 60 55 58 64 64 65
14 20 27 30 26 15 22 12 26 32 44 20 15 13 17 16 13 20 13 15 20 20 19 22 21 19 21 19 20 21 16 16 15 16 17 21 35 35 55 70 61 52 53 61 60
14 18 33 33 37 40 25 10 32 38 49 21 13 14 15 13 11 17 16 18 14 18 17 19 16 16 17 16 17 17 15 18 22 24 28 22 25 28 57 51 57 50 50 51 54
20 23 36 50 48 48 37 20 32 44 24 26 28 26 24 18 12 16 20 22 22 29 26 20 18 15 15 17 17 17 23 32 27 30 25 21 27 17 28 34 37 46 46 47 51
22 28 39 50 40 41 31 38 42 28 26 29 30 30 26 32 28 29 20 21 23 21 27 27 29 18 16 17 20 22 24 36 32 31 23 24 25 22 15 27 28 27 30 39 44
30 23 38 44 46 38 58 53 41 35 33 36 34 36 38 36 31 31 29 22 22 18 24 32 28 17 16 15 15 21 22 19 23 23 25 25 22 15 19 19 30 29 26 29 34
47 38 40 45 44 42 74 76 56 40 39 35 46 42 49 44 39 40 36 50 46 37 28 19 27 17 17 14 15 16 17 22 27 28 29 25 20 23 23 21 25 35 31 28 28
57 59 45 40 48 60 78 83 62 48 42 46 44 45 45 46 41 37 39 56 47 46 42 46 18 16 18 20 19 20 18 20 20 27 28 28 23 19 17 23 18 24 25 23 25
85 88 52 55 63 73 77 64 56 58 50 46 45 55 56 51 46 41 55 60 44 48 67 58 44 27 19 13 14 15 17 19 22 24 23 25 19 13 14 12 23 19 18 18 14
87 89 56 54 94 94 76 56 48 66 66 57 51 54 58 58 51 62 54 52 45 46 68 56 52 31 18 15 14 15 18 17 15 22 21 21 18 11 12 14 10 14 14 16 15
87 93 71 70 81 89 87 78 65 54 67 72 61 62 72 76 69 70 67 54 48 49 53 50 59 50 43 36 37 32 22 17 17 20 18 18 16 15 12 16 14 13 10 9 9
89 89 90 96 80 79 70 79 78 76 60 74 90 78 74 81 76 70 58 63 51 55 51 59 60 52 47 45 38 35 31 25 22 16 19 15 16 16 16 18 14 6 9 11 11
84 92 97 94 90 76 68 78 75 63 66 68 93 95 64 77 70 79 74 70 69 61 58 66 59 62 59 40 36 40 31 26 22 18 19 16 18 14 12 9 12 10 8 8 8
89 95 99 99 89 95 83 74 70 68 66 66 69 72 70 61 66 61 57 56 64 66 68 70 70 68 65 52 45 36 23 22 20 17 16 19 17 12 14 16 14 8 7 7 6

GFSSW_850_rhum_030.txt.gz
RH
52 51 49 46 43 41 39 36 29 20 16 11 9 8 8 8 8 8 9 10 9 8 13 65 77 75 71 63 64 62 39 31 28 29 31 35 35 42 43 48 47 52 52 67 86
37 37 37 36 36 34 37 38 36 32 21 16 12 10 8 8 8 8 9 10 9 8 41 58 68 64 58 51 54 46 34 26 22 21 23 32 33 40 38 41 44 52 58 75 82
28 28 26 26 26 26 27 29 32 34 32 24 17 13 10 9 13 10 10 12 10 9 34 47 49 51 40 42 46 40 32 23 21 22 24 31 34 37 34 36 40 52 65 74 78
16 15 14 14 15 17 19 22 25 28 32 30 24 17 14 10 10 16 13 13 11 18 31 39 45 42 33 40 39 38 29 26 23 22 23 26 31 33 35 30 37 50 62 70 74
13 12 10 9 8 8 9 10 15 23 27 30 29 21 20 24 12 9 13 13 13 32 31 34 43 34 28 30 31 37 24 24 25 23 19 20 28 29 34 37 39 49 60 64 66
12 11 9 8 8 7 6 16 22 24 26 28 29 27 25 18 9 8 8 9 26 36 30 32 36 31 27 27 28 20 25 22 18 14 14 15 23 28 30 38 43 49 55 58 61
7 7 6 5 5 6 5 19 23 25 26 28 29 28 37 19 10 10 33 36 46 38 30 30 31 35 22 21 17 20 14 11 10 11 12 14 20 24 26 41 45 47 50 54 57
7 5 4 4 3 4 10 17 23 25 25 26 27 28 32 18 16 12 32 42 48 41 28 30 31 34 22 14 12 13 12 14 12 10 10 12 18 17 26 39 43 46 48 51 54
8 6 4 4 3 4 10 18 25 29 30 28 31 48 21 15 13 13 34 36 46 39 35 30 32 26 22 21 14 12 16 16 14 11 11 13 16 14 23 34 38 44 46 49 53
9 8 6 5 4 5 10 20 29 34 45 56 65 46 26 16 16 11 18 21 43 35 29 27 22 16 18 16 19 15 14 14 16 12 11 14 16 14 24 28 32 41 44 47 50
12 10 7 6 4 12 7 37 42 53 36 37 32 24 24 18 26 13 11 24 31 32 20 17 17 17 11 12 11 11 12 14 13 11 12 14 14 14 19 27 29 38 42 44 46
16 12 7 6 6 8 25 34 50 55 41 26 25 27 32 32 22 17 10 19 19 25 16 16 17 11 10 9 12 12 12 12 12 10 12 14 15 13 16 26 28 34 39 42 44
17 12 8 7 9 30 50 52 60 56 38 21 23 21 22 24 20 18 13 13 14 17 14 13 11 10 11 12 12 12 13 12 12 11 11 12 14 14 13 23 28 30 35 37 41
20 13 11 9 31 35 38 48 59 52 32 12 17 20 21 21 18 18 11 10 11 14 11 11 9 11 11 12 11 13 10 10 10 12 16 11 18 14 13 19 22 26 31 34 40
21 15 13 19 30 44 48 52 48 58 16 14 14 18 18 17 14 16 17 9 9 10 10 12 10 12 13 12 11 11 7 9 10 11 13 13 15 14 12 14 16 18 24 31 34
25 19 16 41 52 45 46 42 59 30 16 15 12 13 15 16 13 15 17 10 9 9 10 10 9 9 12 11 10 10 9 10 11 10 14 13 14 14 13 16 14 15 21 28 33
28 22 29 32 44 39 35 46 24 19 12 23 21 17 16 13 14 13 17 18 19 18 15 12 10 10 9 12 11 12 13 15 15 13 13 10 13 14 10 10 12 13 14 25 32
26 19 39 42 43 32 45 26 22 16 31 26 25 21 21 17 15 12 16 18 15 14 12 15 15 11 10 11 13 13 12 11 16 10 9 9 12 11 9 9 10 12 11 18 27
24 48 43 41 34 44 36 21 17 40 37 34 25 25 20 20 21 17 14 15 15 13 16 14 14 8 10 10 10 14 14 8 8 10 10 7 8 8 9 9 10 10 10 11 21
32 47 38 40 43 45 26 31 34 34 34 31 35 29 32 28 25 20 15 26 16 13 19 16 16 10 10 9 9 10 10 12 10 16 16 8 9 9 10 11 10 10 10 12 18
56 37 41 42 39 23 25 30 31 29 34 36 35 36 33 34 30 24 27 31 26 25 27 19 16 14 11 12 12 12 12 11 9 10 11 11 8 7 9 10 10 10 10 11 16
55 25 45 46 26 28 30 36 36 28 30 31 33 30 34 36 34 32 36 37 32 28 27 20 18 19 14 10 9 10 12 12 12 17 11 11 8 6 6 7 9 8 10 11 13
56 50 48 41 36 36 34 33 33 33 34 38 46 43 35 38 42 36 38 34 30 29 35 27 21 22 18 13 12 12 11 10 10 10 17 14 9 8 9 10 12 11 11 11 12
61 38 35 40 45 38 43 38 37 32 37 35 67 66 54 34 30 39 35 30 28 28 39 35 24 22 19 17 14 16 13 11 12 14 13 12 10 9 8 10 9 9 10 11 15
64 46 62 47 41 46 44 41 40 43 38 34 66 90 95 62 43 34 38 32 27 31 25 26 31 30 23 25 22 17 14 13 14 14 15 12 12 11 10 10 10 10 10 11 12
61 66 66 65 54 52 44 47 46 49 44 43 49 49 62 92 71 86 50 38 35 31 30 25 33 32 32 23 22 22 20 18 15 14 14 13 13 9 9 11 12 12 12 11 10
88 86 94 88 60 54 44 45 49 47 43 47 42 44 41 50 50 50 44 37 32 38 36 33 28 32 31 22 23 29 22 20 19 16 16 19 15 12 12 12 12 12 11 10 12

GFSSW_850_rhum_033.txt.gz
RH
29 29 29 29 30 31 31 32 38 36 34 25 15 11 9 8 8 9 10 14 13 10 15 48 53 57 51 48 45 41 45 36 21 27 22 21 21 27 32 37 38 40 54 67 77
17 16 16 16 17 19 21 23 26 30 34 31 22 15 12 10 9 17 12 12 11 9 29 40 46 49 44 40 36 33 84 53 17 15 23 21 20 25 28 32 37 39 54 68 70
11 10 10 9 8 8 8 9 14 18 23 32 30 22 16 13 23 12 11 10 10 9 23 34 36 43 36 29 29 27 54 52 17 17 20 20 21 22 24 28 34 44 58 64 65
8 7 6 6 7 7 6 6 5 8 16 23 30 28 22 14 14 22 10 12 10 12 20 29 32 37 28 26 25 27 24 33 17 18 18 19 20 22 21 21 32 44 54 59 62
5 5 4 3 3 3 4 4 5 20 23 23 26 30 26 31 14 13 10 13 15 23 18 26 29 31 26 20 22 24 21 20 20 18 16 18 20 25 24 23 29 42 52 56 58
5 4 4 4 3 3 2 2 5 17 24 25 26 28 29 24 13 9 16 12 20 30 16 21 24 27 24 19 20 20 21 19 18 16 15 14 18 21 25 26 32 40 47 51 53
5 5 4 4 3 3 2 2 7 15 23 26 26 28 41 24 13 8 20 23 25 25 15 18 19 24 22 20 19 19 18 18 18 14 12 13 17 21 23 29 33 38 43 46 49
7 6 5 5 4 3 2 5 9 13 21 25 27 30 35 21 22 12 18 23 26 26 17 16 17 21 22 18 15 19 18 18 13 12 11 12 17 15 20 27 32 35 38 42 45
9 7 6 4 3 3 6 8 10 20 23 28 36 55 28 21 18 17 15 24 26 28 24 18 20 21 21 19 15 13 18 17 13 11 11 12 14 13 18 23 28 33 36 37 41
9 7 6 4 4 4 4 15 25 38 65 68 62 46 32 18 16 13 14 21 27 28 26 22 21 20 20 22 22 15 14 13 15 12 11 12 13 13 15 20 24 31 34 37 38
10 8 6 5 5 7 23 22 32 54 55 36 30 25 18 16 14 11 18 21 26 25 25 23 24 27 17 20 15 12 11 12 12 10 12 13 13 13 14 18 20 28 32 35 36
12 9 7 6 15 26 30 30 40 43 34 22 16 16 21 20 18 11 14 15 24 25 17 19 24 14 10 9 14 14 12 11 10 10 12 12 13 11 11 15 18 24 29 32 35
13 10 8 7 25 26 32 30 33 37 30 16 12 12 11 22 19 16 9 14 19 24 16 13 11 10 8 8 10 11 12 11 11 10 10 12 14 13 11 12 18 21 27 29 33
20 15 11 7 22 29 23 26 30 37 29 9 11 12 12 13 18 16 9 11 14 20 18 13 8 9 9 9 8 9 8 9 10 11 15 11 17 14 12 12 17 19 24 26 30
22 16 13 28 45 32 28 24 29 36 20 8 11 15 12 12 10 15 13 8 11 13 14 15 11 9 10 9 7 8 6 8 9 11 11 11 14 13 11 12 13 16 20 23 27
20 15 14 31 30 25 26 24 30 31 19 11 10 12 13 13 11 12 13 8 10 10 10 11 7 7 8 8 7 7 7 7 7 8 13 12 12 13 10 11 11 12 15 19 22
19 20 24 42 29 25 27 22 21 20 8 19 19 14 12 12 14 12 15 12 12 14 13 10 9 7 7 9 8 9 9 12 11 11 12 9 11 12 9 8 9 10 12 14 19
20 38 46 32 25 26 27 18 24 12 24 22 22 20 21 15 12 12 15 17 10 10 10 13 14 9 8 8 10 10 9 10 16 11 9 8 11 10 8 7 8 9 10 12 16
25 32 31 25 26 26 25 20 16 26 28 26 23 20 17 14 15 13 14 15 13 9 13 13 13 8 8 7 8 11 11 6 7 7 7 6 7 6 6 7 8 9 10 11 14
53 32 29 25 27 26 21 21 20 20 19 20 27 22 28 23 19 17 13 11 13 11 11 13 15 9 8 8 8 9 8 10 8 13 12 8 8 8 9 9 8 9 10 10 11
46 24 29 26 26 19 16 17 19 18 17 20 22 26 32 38 35 24 17 20 19 17 12 13 14 13 9 10 11 10 10 9 8 8 10 12 8 5 7 8 9 8 9 9 10
38 25 31 29 21 15 18 21 22 18 17 19 21 24 25 33 46 36 30 29 24 22 19 14 16 19 11 8 8 8 10 11 12 15 8 8 9 5 5 6 7 8 8 9 9
44 29 27 27 26 21 20 20 22 21 20 24 23 35 41 44 60 59 43 30 24 22 28 21 21 23 17 10 9 10 9 9 9 8 13 11 9 7 8 7 7 8 8 9 10
47 29 26 25 24 24 28 27 28 33 23 23 31 35 43 39 30 41 51 34 24 23 34 33 24 22 18 15 11 13 10 9 9 12 11 11 9 9 9 10 10 10 9 10 12
52 37 43 36 30 30 31 29 34 38 25 24 34 42 42 51 51 87 55 36 24 28 24 23 33 24 18 13 13 11 11 10 11 10 12 9 10 9 10 10 9 9 10 11 13
82 60 53 49 39 43 34 38 37 28 28 28 30 32 33 47 45 48 63 49 41 33 29 22 30 26 23 16 19 18 13 10 9 10 10 9 9 7 8 8 9 9 10 11 12
97 94 89 59 44 41 44 36 32 29 30 36 36 31 32 34 37 32 34 33 30 32 31 32 27 31 33 22 22 25 17 14 11 10 10 12 10 8 9 10 11 11 12 11 11

GFSSW_850_rhum_036.txt.gz
RH
10 10 9 9 8 8 8 10 14 19 24 32 32 23 15 11 9 9 9 10 14 12 10 39 33 44 51 49 44 43 64 69 50 28 23 18 22 29 32 35 37 50 64 75 78
6 6 5 5 5 6 6 6 6 6 8 14 27 31 24 15 11 9 10 11 12 14 14 35 31 40 43 41 36 34 87 66 42 37 33 19 21 25 27 30 44 56 67 73 75
4 4 3 3 3 2 2 2 3 5 6 12 19 27 29 20 23 14 11 11 11 12 20 27 28 35 37 33 29 30 46 33 29 27 22 19 18 22 23 29 44 57 64 68 70
4 4 4 3 3 3 2 2 2 3 8 19 22 24 30 23 22 21 12 10 11 11 22 22 27 32 33 30 25 28 45 36 30 26 21 28 28 17 21 27 41 54 59 63 66
5 5 5 4 3 3 2 2 2 2 8 18 24 25 29 42 22 14 11 12 12 14 22 19 24 27 31 26 22 22 46 34 29 22 28 30 40 30 22 29 38 50 55 59 63
6 5 4 4 3 3 2 2 2 4 9 17 26 29 29 35 20 18 17 11 14 18 20 17 21 23 27 24 20 20 24 25 26 18 14 17 32 33 20 25 36 46 52 53 52
6 5 4 3 3 2 2 3 4 6 8 13 24 31 44 28 17 9 14 21 20 21 17 15 17 20 24 22 19 17 20 18 18 15 14 12 16 22 27 27 34 42 47 50 48
8 6 5 4 3 3 2 4 2 12 20 16 27 30 42 23 18 16 7 12 18 19 18 13 14 17 19 21 18 18 20 23 17 16 14 12 16 16 28 27 32 37 41 46 46
8 7 6 5 4 5 6 17 21 23 35 27 40 54 32 22 24 20 13 14 17 19 19 14 13 14 16 22 24 19 24 23 20 15 13 12 14 14 22 25 30 33 36 40 44
9 8 6 5 6 15 19 19 23 32 64 54 59 50 36 21 18 19 17 12 16 19 20 16 14 14 15 20 31 22 18 18 19 13 12 12 12 14 16 23 28 31 33 36 40
10 9 7 6 13 22 26 20 18 46 25 36 33 26 19 19 14 14 15 12 17 20 22 19 19 18 17 18 19 16 13 14 13 12 12 13 12 16 16 30 24 28 32 34 36
10 9 8 6 16 22 24 20 20 23 23 21 18 19 22 20 16 13 13 12 17 23 21 21 23 16 14 15 17 18 16 12 10 10 13 13 12 12 14 21 21 25 29 32 33
12 9 8 6 18 24 18 18 18 20 21 17 14 13 10 14 17 14 11 13 15 22 23 23 19 15 15 16 15 18 18 14 11 9 11 14 15 14 12 14 16 21 26 30 32
13 12 9 7 20 33 18 17 16 19 22 11 9 8 9 7 11 16 10 15 15 20 21 20 15 16 16 16 13 15 13 12 12 11 14 14 20 18 12 12 15 16 22 26 30
16 14 10 33 25 31 18 16 17 20 27 7 8 12 8 7 7 11 13 12 16 14 19 21 14 12 15 14 8 9 7 10 10 11 11 11 14 14 13 14 14 16 19 24 27
17 16 17 35 35 26 17 17 17 22 22 13 12 15 11 8 7 8 14 11 11 12 15 18 12 9 8 8 7 6 7 6 7 9 15 12 13 15 13 15 13 13 15 22 24
18 18 28 34 30 19 18 18 15 21 9 18 22 18 18 16 9 8 14 16 12 18 18 16 16 11 8 8 7 7 8 12 13 12 14 10 12 13 9 10 11 11 14 20 21
24 27 32 37 22 20 18 16 23 13 15 17 17 17 20 16 15 10 12 16 11 10 14 16 16 12 8 8 9 8 8 11 18 14 10 9 12 12 9 7 7 9 12 15 19
31 45 33 27 22 20 19 21 19 22 19 18 16 19 21 21 27 17 13 14 13 9 15 14 14 9 9 6 7 9 10 7 8 8 8 7 8 6 8 8 8 7 9 13 15
45 46 40 26 21 22 19 22 14 14 14 14 19 16 25 22 29 34 24 11 13 9 8 12 15 9 8 7 7 8 7 10 9 16 16 10 11 10 10 10 9 9 8 10 12
51 28 24 25 22 21 21 13 15 13 13 13 15 16 17 59 44 42 34 35 20 16 11 10 13 11 9 10 10 9 10 10 8 9 12 13 8 7 12 10 10 9 8 9 11
62 35 25 23 20 14 15 16 16 19 24 16 17 16 30 50 51 65 62 56 40 22 23 14 12 16 15 8 7 8 10 11 13 18 10 11 9 6 8 9 9 8 8 9 10
61 40 26 22 23 20 17 16 15 28 27 33 21 17 24 33 54 68 79 56 39 28 30 28 22 22 20 13 9 10 9 9 10 9 16 13 10 7 8 7 8 8 9 9 11
65 44 38 28 24 26 24 21 23 24 33 46 35 20 23 33 30 84 69 56 43 31 33 29 29 24 21 18 12 13 10 9 9 13 13 11 11 10 9 8 8 10 9 10 11
56 50 56 45 39 34 27 24 36 36 54 33 22 43 41 39 42 57 70 45 44 35 26 24 33 24 18 15 12 10 10 10 11 11 14 10 10 12 13 12 11 10 10 11 13
86 97 94 69 48 38 38 29 40 25 21 28 32 31 29 27 32 48 49 49 66 36 31 26 34 28 29 21 17 17 10 10 9 9 9 9 9 10 11 11 11 12 12 14 13
86 96 99 92 54 50 47 42 31 25 27 26 25 25 28 23 28 27 26 27 31 32 32 32 34 35 36 25 22 22 16 11 9 8 9 12 11 11 13 13 13 11 11 12 12

GFSSW_850_rhum_042.txt.gz
RH
5 5 4 4 3 3 3 2 2 2 2 2 3 12 16 29 28 21 11 8 10 13 19 15 51 56 76 88 81 66 80 86 75 70 54 54 62 60 60 69 64 68 68 67 59
5 5 4 4 3 3 3 2 2 3 2 2 3 9 16 20 28 25 10 8 9 11 15 16 42 71 84 78 76 80 96 76 56 54 56 55 60 57 62 65 70 72 61 66 55
5 5 4 4 3 3 3 3 3 3 4 4 4 10 19 21 27 17 15 7 8 10 13 19 19 46 46 65 72 76 85 60 47 53 40 34 55 59 64 77 74 76 79 81 62
4 4 4 3 3 3 4 5 7 17 13 4 8 10 25 21 29 16 12 12 7 12 14 21 39 35 37 50 53 66 62 50 43 39 45 34 41 57 58 64 71 67 79 78 72
4 4 3 3 3 4 6 12 18 20 20 17 12 13 32 24 17 18 12 12 9 15 15 14 24 28 37 38 43 47 44 45 40 36 34 31 33 51 58 71 76 78 78 76 73
6 5 4 4 3 4 14 20 24 22 17 20 22 27 34 50 12 18 18 15 11 12 15 14 22 27 29 30 40 38 39 34 31 30 34 36 39 50 69 77 78 77 76 78 76
8 7 6 5 4 5 17 16 15 14 18 19 24 35 44 5 11 23 22 17 11 11 13 12 23 24 24 32 29 32 38 34 32 29 36 36 39 64 71 74 77 78 78 77 75
9 8 7 6 4 8 20 19 15 28 34 39 43 50 33 3 13 17 22 24 20 13 11 10 16 22 23 21 18 31 36 45 34 31 31 32 46 60 70 72 75 77 77 76 77
13 10 9 7 5 16 20 19 14 31 26 19 56 67 40 14 20 20 23 26 24 16 14 12 15 20 20 21 26 31 41 39 37 31 30 31 47 58 68 69 71 73 72 74 73
20 17 14 9 6 13 24 21 9 16 38 24 70 67 20 17 25 25 24 24 26 21 20 18 17 26 23 29 34 38 43 36 34 25 30 33 48 60 63 67 69 70 69 69 71
22 19 16 11 7 15 25 14 17 15 16 16 15 26 17 12 17 22 24 22 26 23 29 24 27 31 24 22 22 28 34 36 29 22 23 29 50 59 57 61 65 68 69 68 70
26 22 18 12 8 18 26 19 19 18 18 12 15 15 15 14 17 15 22 20 22 26 25 32 31 23 22 19 20 22 25 32 29 24 22 26 51 53 51 56 59 62 65 66 67
25 26 22 14 11 12 18 16 17 18 19 16 14 14 13 14 16 13 19 21 23 25 24 29 27 22 22 21 20 22 24 24 33 26 19 22 42 50 47 51 53 57 58 60 58
20 24 24 17 13 20 17 17 18 20 34 24 16 15 13 14 14 14 10 19 21 20 19 24 21 23 25 23 18 24 17 18 22 29 38 18 34 55 54 60 55 55 60 58 56
11 22 22 19 19 20 19 19 20 19 20 15 15 14 12 14 17 18 18 15 22 22 18 23 23 26 25 24 19 20 17 18 21 28 29 27 30 41 57 65 54 50 49 53 57
12 22 26 22 22 22 22 20 19 30 35 17 14 14 13 14 14 20 22 22 16 21 19 18 19 22 24 21 21 18 21 23 23 27 37 28 26 28 60 56 51 52 46 46 47
11 16 32 28 25 24 24 24 32 30 16 19 19 15 15 15 16 21 26 32 54 32 26 20 19 19 22 27 23 23 29 38 37 33 33 23 25 21 32 44 44 48 53 54 47
10 29 32 29 27 25 28 32 38 21 20 15 18 16 16 22 26 22 30 40 47 67 51 25 27 20 19 26 29 27 26 42 45 36 27 18 24 20 14 21 34 41 49 48 44
11 32 30 27 26 25 29 48 35 24 21 24 23 26 26 24 35 31 33 44 49 59 86 76 24 19 18 19 21 26 29 21 21 20 22 19 14 11 10 10 17 28 42 42 43
16 34 37 34 28 24 34 44 32 22 22 24 39 35 38 35 41 43 36 33 51 48 52 67 66 20 18 16 19 17 17 23 23 25 24 20 17 19 12 10 10 17 30 35 39
25 53 41 34 28 24 40 36 22 19 24 34 39 42 33 32 29 42 35 32 44 51 53 61 67 39 15 19 22 24 17 16 17 23 25 25 18 10 13 13 11 12 22 31 34
43 85 39 37 32 37 44 34 25 22 29 30 29 31 34 42 43 41 44 53 60 61 76 60 81 84 35 16 14 20 19 16 16 22 24 24 15 13 12 10 9 8 13 28 32
68 72 45 43 70 70 49 46 34 39 38 38 38 39 38 43 55 63 59 44 54 60 85 89 85 93 42 22 15 16 20 15 17 18 22 18 15 12 15 16 17 11 8 13 28
80 80 55 57 62 70 79 62 53 40 34 38 40 39 42 53 52 56 58 52 50 54 66 91 88 90 84 50 39 24 16 17 15 19 16 16 14 14 14 18 16 11 11 9 25
68 80 82 92 79 90 76 64 54 54 49 43 37 42 49 61 55 54 49 42 39 54 72 93 95 61 52 42 38 40 25 16 14 13 16 14 16 14 18 23 20 14 12 13 26
75 80 85 84 84 81 70 65 74 73 65 61 72 64 44 59 57 66 60 55 56 56 73 87 89 67 53 40 39 34 25 25 13 12 17 17 16 13 15 23 27 25 23 23 24
83 91 97 98 88 98 74 77 78 62 83 66 68 70 61 54 46 47 51 48 45 59 78 84 71 72 70 47 33 37 36 26 16 12 13 18 17 15 47 53 55 26 22 27 28

GFSSW_850_rhum_045.txt.gz
RH
5 5 4 4 4 3 3 3 3 3 3 4 2 2 6 13 19 28 20 8 9 16 20 14 24 44 86 97 91 64 79 84 75 74 64 63 69 78 75 72 66 66 66 76 78
4 4 4 4 4 3 4 6 7 11 12 6 4 4 6 13 16 19 16 17 9 12 17 16 36 72 92 89 84 83 94 73 55 57 63 59 65 76 69 66 70 68 65 74 72
5 4 4 4 3 3 6 14 19 20 18 16 10 7 7 17 17 18 14 14 13 10 13 14 45 85 85 81 80 79 82 66 50 53 57 58 59 61 66 78 70 73 70 72 87
7 6 5 5 4 3 7 19 21 22 20 19 18 10 12 20 24 15 13 15 14 10 14 25 64 53 52 60 64 84 70 67 46 44 51 45 54 60 66 63 65 59 61 68 89
9 8 6 5 4 4 9 18 15 10 13 13 13 19 20 21 8 17 16 13 12 11 16 22 44 43 49 49 52 66 62 56 58 56 46 38 52 60 64 67 68 69 70 68 81
12 10 8 6 5 4 13 20 15 11 24 17 14 22 25 34 10 22 18 18 8 10 16 30 35 35 34 34 50 44 46 46 45 44 37 37 40 55 72 73 71 76 70 67 66
19 16 12 9 6 5 13 18 12 9 26 15 16 40 38 5 11 26 24 21 10 9 14 15 23 29 26 32 31 34 42 37 36 39 37 37 56 64 76 77 79 79 79 73 76
23 20 15 13 8 6 9 16 12 8 36 27 19 55 29 8 9 14 17 33 15 13 13 11 16 28 25 24 20 34 38 50 37 34 33 34 52 74 78 78 79 80 81 77 81
23 22 17 14 10 7 10 13 8 10 38 21 42 62 39 27 29 26 25 36 24 16 20 17 17 20 23 25 30 28 46 49 41 33 33 36 65 72 78 77 78 77 77 78 78
21 21 16 15 12 8 14 10 7 12 22 20 36 51 20 17 14 17 24 29 34 32 26 21 19 26 30 32 45 37 43 38 39 32 36 42 50 73 75 77 78 78 76 76 77
14 17 17 13 16 10 14 10 16 13 15 15 14 16 14 14 12 11 19 31 31 28 31 23 26 27 22 26 24 30 36 38 34 29 32 39 46 75 72 74 77 78 77 76 76
10 10 14 16 15 11 17 18 24 30 25 13 14 16 14 14 16 12 18 30 30 32 30 34 30 21 20 24 24 24 27 32 29 27 27 31 40 63 70 71 72 76 76 76 75
12 12 14 21 15 14 15 22 24 26 22 16 16 13 12 14 15 16 17 18 29 35 31 33 29 22 25 24 25 24 26 26 29 29 25 37 47 56 68 65 68 71 72 72 72
11 10 16 23 15 21 21 21 23 19 31 20 15 14 13 15 16 17 20 16 23 30 29 30 22 24 25 28 25 33 21 21 24 29 40 25 51 75 68 71 65 67 71 70 71
11 10 11 26 21 25 22 22 20 19 20 16 15 13 11 12 13 17 21 22 24 23 23 25 25 26 28 26 24 25 19 22 22 27 32 28 40 64 62 69 67 62 65 68 70
9 17 29 30 23 26 24 22 19 26 27 19 15 15 14 15 16 19 23 39 38 42 21 23 16 21 22 22 22 20 20 22 26 33 38 27 37 38 62 57 59 56 57 60 64
9 31 26 26 30 32 28 22 28 29 18 21 21 18 17 30 24 24 37 65 75 67 53 28 24 18 21 25 25 24 31 42 44 46 38 28 36 29 45 44 44 53 51 50 58
8 32 33 36 32 27 28 30 34 26 24 18 21 19 23 36 32 28 33 55 57 68 84 94 36 22 18 28 30 31 31 52 55 52 38 29 37 29 28 35 39 40 44 44 52
10 29 36 33 30 25 27 48 38 27 25 27 26 34 35 32 35 36 39 51 54 60 81 88 70 46 29 18 26 35 36 29 34 25 29 28 19 15 20 31 40 41 40 43 46
12 32 41 36 30 27 35 42 34 23 23 30 40 37 41 32 34 43 36 42 53 52 51 68 90 55 39 20 22 29 26 34 32 41 32 27 19 22 17 18 30 44 41 39 43
17 39 39 34 30 25 41 41 28 27 26 33 38 40 37 40 42 46 38 45 55 56 48 61 73 69 54 26 22 27 30 28 32 32 36 29 22 17 15 14 16 32 34 37 43
39 56 41 36 48 54 55 50 37 30 32 31 30 35 34 41 48 44 58 55 56 51 77 75 93 93 78 43 44 39 28 23 32 37 28 28 23 12 12 12 14 13 21 22 36
61 70 47 38 84 89 68 59 41 42 38 38 38 39 39 46 51 60 63 46 56 58 77 77 98 93 52 34 34 34 26 22 20 26 28 30 25 13 13 14 13 12 10 12 26
76 86 58 61 72 84 93 77 57 44 44 52 42 41 45 52 51 52 66 53 48 52 75 72 97 88 81 75 58 55 48 41 29 24 22 18 16 13 12 14 15 16 18 14 21
73 83 85 92 85 91 91 80 66 70 60 56 50 69 74 66 56 64 53 48 54 69 82 91 94 88 75 65 58 54 50 43 45 21 18 16 17 13 15 15 32 30 19 14 21
77 85 87 89 87 94 83 70 77 68 70 73 78 82 75 76 59 54 57 57 59 74 85 90 89 88 82 55 50 54 41 38 38 30 16 16 17 15 50 49 62 66 30 17 29
89 90 95 92 90 97 97 96 95 96 91 80 92 96 89 68 58 59 53 50 53 76 93 97 96 92 92 54 48 54 47 44 36 49 39 21 24 41 69 73 80 84 68 26 26

GFSSW_850_rhum_048.txt.gz
RH
6 6 5 5 4 4 5 11 14 14 14 10 8 4 3 3 7 13 22 15 9 14 11 30 40 46 76 94 95 71 83 83 78 82 75 78 71 78 78 81 68 68 69 89 97
8 7 6 6 4 4 5 16 18 20 15 15 12 12 4 5 7 7 13 19 10 11 22 21 31 68 92 91 92 83 94 74 60 57 74 70 64 81 80 75 71 72 74 82 87
10 9 8 6 5 4 5 15 15 14 12 15 13 14 9 7 12 19 16 18 13 12 21 19 29 84 86 89 85 82 92 67 52 54 59 56 63 72 70 76 70 87 82 87 82
18 14 10 8 6 5 7 14 15 13 10 21 22 12 15 10 17 20 17 17 13 16 20 24 50 85 81 78 80 90 77 73 54 50 54 53 59 64 66 65 64 64 65 75 78
22 19 15 12 8 6 8 12 12 12 8 15 14 14 18 15 6 9 16 17 16 12 20 46 74 71 74 67 58 78 67 64 61 56 57 52 54 64 67 66 67 69 84 85 79
21 19 16 14 11 8 6 9 10 12 8 19 19 14 24 21 11 28 19 19 17 14 22 36 66 57 51 51 61 52 56 56 52 49 48 53 52 58 73 69 70 76 86 90 85
19 18 17 16 14 10 7 7 9 10 10 23 13 25 38 16 17 27 21 25 17 11 15 24 30 43 29 36 37 45 43 36 37 42 46 40 66 64 72 68 74 77 82 88 83
14 14 15 13 13 11 9 10 8 8 12 12 17 36 27 28 25 22 24 38 19 21 30 33 34 37 27 26 22 35 38 49 39 39 38 41 57 76 72 73 74 72 74 80 83
10 9 9 11 14 12 10 9 9 11 12 14 32 44 22 25 18 18 17 31 29 18 25 22 32 26 28 31 38 32 56 53 45 35 36 41 68 78 78 78 78 73 70 70 75
10 8 9 10 15 11 10 9 10 14 12 22 26 33 15 14 14 12 21 30 36 26 29 24 22 28 36 41 60 42 42 43 43 33 41 46 56 82 80 81 80 78 75 72 74
10 9 10 15 16 13 13 11 14 17 14 15 15 16 14 14 16 14 16 36 38 37 41 25 31 29 24 34 31 34 40 41 36 30 45 48 62 85 80 80 81 81 80 79 76
12 10 8 12 16 16 16 23 33 34 32 13 15 13 13 13 16 18 17 34 31 36 32 34 33 23 20 24 30 30 27 35 31 28 35 41 48 75 79 80 79 80 79 80 79
11 8 8 15 18 21 20 28 32 25 24 15 16 13 12 14 16 18 21 19 33 36 35 35 28 21 22 27 30 32 33 28 32 26 28 32 42 72 76 75 76 78 79 78 78
10 8 24 22 17 25 26 30 29 21 26 18 15 13 12 14 16 15 19 23 20 39 35 33 27 23 23 26 28 41 26 26 25 29 40 30 53 65 84 81 75 75 79 79 79
9 18 27 26 22 26 31 29 23 20 20 17 16 13 14 14 18 16 26 30 26 22 31 39 32 30 29 23 24 23 24 25 25 31 29 28 36 43 76 94 81 72 74 75 76
9 26 28 31 31 30 27 25 21 25 26 20 17 18 25 22 23 22 38 40 49 50 30 25 20 25 24 24 23 23 23 27 30 35 42 31 31 40 75 73 76 68 69 70 72
8 19 36 35 35 27 24 23 27 27 20 23 23 21 24 34 31 28 48 62 74 84 72 48 24 20 21 27 24 27 31 47 46 48 42 33 31 35 30 56 58 64 64 66 68
8 13 38 38 32 27 22 28 27 27 27 22 23 23 27 32 33 31 42 70 58 69 85 87 40 27 22 27 32 31 34 52 56 56 39 37 44 34 21 32 45 48 56 60 63
8 23 42 37 33 28 23 47 41 29 26 27 28 36 35 30 34 34 43 69 60 60 81 93 69 47 38 33 26 35 39 32 42 34 44 33 30 21 20 25 42 44 45 54 56
10 32 43 36 35 31 34 43 32 26 26 31 34 34 41 34 38 42 37 57 59 55 52 70 95 55 49 38 28 34 28 37 46 52 44 38 26 34 24 29 36 46 43 44 52
17 38 37 34 34 27 43 42 32 29 32 34 38 35 40 38 43 46 42 59 58 57 51 71 80 71 59 46 32 30 37 38 35 43 50 42 33 23 25 23 21 29 40 39 44
34 46 40 34 47 69 67 63 46 37 35 32 32 37 38 42 49 47 51 57 57 53 74 77 89 89 81 53 48 48 46 38 42 48 40 43 36 15 16 18 18 15 20 17 31
64 58 45 44 81 90 83 74 56 45 47 44 41 35 38 47 50 58 59 52 57 57 74 74 92 94 60 48 49 49 44 49 48 36 41 40 39 18 16 15 12 14 12 20 25
69 81 56 63 81 88 94 83 71 53 54 56 50 50 48 51 50 47 65 54 54 56 69 77 90 86 80 64 66 67 55 50 50 57 36 35 31 20 17 17 15 13 10 9 10
68 89 88 93 87 89 93 82 81 74 66 62 56 70 76 78 57 64 60 56 65 66 82 88 95 80 83 79 66 63 63 57 54 49 51 28 24 22 22 20 22 34 38 33 23
81 87 87 89 89 84 87 83 88 80 85 78 74 66 89 92 64 56 58 58 77 74 92 94 92 84 91 66 62 58 50 48 46 44 42 42 29 24 47 59 82 86 83 75 50
90 92 98 91 88 96 94 96 95 96 90 91 94 98 97 94 90 88 60 54 57 84 96 93 94 92 88 66 59 58 46 47 48 47 55 34 41 56 76 91 88 90 93 95 61